locationName,lineName,date,time,countIn,countOut
�n����ʂ�,3_1_2,2022/4/1,0:00,0,0
�n����ʂ�,3_1_2,2022/4/1,1:00,0,0
�n����ʂ�,3_1_2,2022/4/1,2:00,0,1
�n����ʂ�,3_1_2,2022/4/1,3:00,1,1
�n����ʂ�,3_1_2,2022/4/1,4:00,2,1
�n����ʂ�,3_1_2,2022/4/1,5:00,3,6
�n����ʂ�,3_1_2,2022/4/1,6:00,11,10
�n����ʂ�,3_1_2,2022/4/1,7:00,34,51
�n����ʂ�,3_1_2,2022/4/1,8:00,51,75
�n����ʂ�,3_1_2,2022/4/1,9:00,41,44
�n����ʂ�,3_1_2,2022/4/1,10:00,90,60
�n����ʂ�,3_1_2,2022/4/1,11:00,77,91
�n����ʂ�,3_1_2,2022/4/1,12:00,92,120
�n����ʂ�,3_1_2,2022/4/1,13:00,97,128
�n����ʂ�,3_1_2,2022/4/1,14:00,82,133
�n����ʂ�,3_1_2,2022/4/1,15:00,67,86
�n����ʂ�,3_1_2,2022/4/1,16:00,49,87
�n����ʂ�,3_1_2,2022/4/1,17:00,81,82
�n����ʂ�,3_1_2,2022/4/1,18:00,62,71
�n����ʂ�,3_1_2,2022/4/1,19:00,17,17
�n����ʂ�,3_1_2,2022/4/1,20:00,14,4
�n����ʂ�,3_1_2,2022/4/1,21:00,2,4
�n����ʂ�,3_1_2,2022/4/1,22:00,3,1
�n����ʂ�,3_1_2,2022/4/1,23:00,0,5
�n����ʂ�,3_1_2,2022/4/2,0:00,0,0
�n����ʂ�,3_1_2,2022/4/2,1:00,1,0
�n����ʂ�,3_1_2,2022/4/2,2:00,0,0
�n����ʂ�,3_1_2,2022/4/2,3:00,0,1
�n����ʂ�,3_1_2,2022/4/2,4:00,0,3
�n����ʂ�,3_1_2,2022/4/2,5:00,1,4
�n����ʂ�,3_1_2,2022/4/2,6:00,7,17
�n����ʂ�,3_1_2,2022/4/2,7:00,21,30
�n����ʂ�,3_1_2,2022/4/2,8:00,25,32
�n����ʂ�,3_1_2,2022/4/2,9:00,44,55
�n����ʂ�,3_1_2,2022/4/2,10:00,73,94
�n����ʂ�,3_1_2,2022/4/2,11:00,102,142
�n����ʂ�,3_1_2,2022/4/2,12:00,118,154
�n����ʂ�,3_1_2,2022/4/2,13:00,132,132
�n����ʂ�,3_1_2,2022/4/2,14:00,144,189
�n����ʂ�,3_1_2,2022/4/2,15:00,145,169
�n����ʂ�,3_1_2,2022/4/2,16:00,125,159
�n����ʂ�,3_1_2,2022/4/2,17:00,67,101
�n����ʂ�,3_1_2,2022/4/2,18:00,74,92
�n����ʂ�,3_1_2,2022/4/2,19:00,45,36
�n����ʂ�,3_1_2,2022/4/2,20:00,9,13
�n����ʂ�,3_1_2,2022/4/2,21:00,5,3
�n����ʂ�,3_1_2,2022/4/2,22:00,2,3
�n����ʂ�,3_1_2,2022/4/2,23:00,1,2
�n����ʂ�,3_1_2,2022/4/3,0:00,0,2
�n����ʂ�,3_1_2,2022/4/3,1:00,1,0
�n����ʂ�,3_1_2,2022/4/3,2:00,1,0
�n����ʂ�,3_1_2,2022/4/3,3:00,0,0
�n����ʂ�,3_1_2,2022/4/3,4:00,1,1
�n����ʂ�,3_1_2,2022/4/3,5:00,2,2
�n����ʂ�,3_1_2,2022/4/3,6:00,8,8
�n����ʂ�,3_1_2,2022/4/3,7:00,12,14
�n����ʂ�,3_1_2,2022/4/3,8:00,29,30
�n����ʂ�,3_1_2,2022/4/3,9:00,76,41
�n����ʂ�,3_1_2,2022/4/3,10:00,102,92
�n����ʂ�,3_1_2,2022/4/3,11:00,133,141
�n����ʂ�,3_1_2,2022/4/3,12:00,144,143
�n����ʂ�,3_1_2,2022/4/3,13:00,113,188
�n����ʂ�,3_1_2,2022/4/3,14:00,176,196
�n����ʂ�,3_1_2,2022/4/3,15:00,99,130
�n����ʂ�,3_1_2,2022/4/3,16:00,131,139
�n����ʂ�,3_1_2,2022/4/3,17:00,88,129
�n����ʂ�,3_1_2,2022/4/3,18:00,65,93
�n����ʂ�,3_1_2,2022/4/3,19:00,32,30
�n����ʂ�,3_1_2,2022/4/3,20:00,3,11
�n����ʂ�,3_1_2,2022/4/3,21:00,1,2
�n����ʂ�,3_1_2,2022/4/3,22:00,3,5
�n����ʂ�,3_1_2,2022/4/3,23:00,1,4
�n����ʂ�,3_1_2,2022/4/4,0:00,0,0
�n����ʂ�,3_1_2,2022/4/4,1:00,2,0
�n����ʂ�,3_1_2,2022/4/4,2:00,2,0
�n����ʂ�,3_1_2,2022/4/4,3:00,0,0
�n����ʂ�,3_1_2,2022/4/4,4:00,0,1
�n����ʂ�,3_1_2,2022/4/4,5:00,5,7
�n����ʂ�,3_1_2,2022/4/4,6:00,8,16
�n����ʂ�,3_1_2,2022/4/4,7:00,20,38
�n����ʂ�,3_1_2,2022/4/4,8:00,23,80
�n����ʂ�,3_1_2,2022/4/4,9:00,44,58
�n����ʂ�,3_1_2,2022/4/4,10:00,54,65
�n����ʂ�,3_1_2,2022/4/4,11:00,80,92
�n����ʂ�,3_1_2,2022/4/4,12:00,110,127
�n����ʂ�,3_1_2,2022/4/4,13:00,85,131
�n����ʂ�,3_1_2,2022/4/4,14:00,82,120
�n����ʂ�,3_1_2,2022/4/4,15:00,70,133
�n����ʂ�,3_1_2,2022/4/4,16:00,68,101
�n����ʂ�,3_1_2,2022/4/4,17:00,102,104
�n����ʂ�,3_1_2,2022/4/4,18:00,51,61
�n����ʂ�,3_1_2,2022/4/4,19:00,21,11
�n����ʂ�,3_1_2,2022/4/4,20:00,10,5
�n����ʂ�,3_1_2,2022/4/4,21:00,5,1
�n����ʂ�,3_1_2,2022/4/4,22:00,0,4
�n����ʂ�,3_1_2,2022/4/4,23:00,2,1
�n����ʂ�,3_1_2,2022/4/5,0:00,0,0
�n����ʂ�,3_1_2,2022/4/5,1:00,0,0
�n����ʂ�,3_1_2,2022/4/5,2:00,0,0
�n����ʂ�,3_1_2,2022/4/5,3:00,0,0
�n����ʂ�,3_1_2,2022/4/5,4:00,1,1
�n����ʂ�,3_1_2,2022/4/5,5:00,7,6
�n����ʂ�,3_1_2,2022/4/5,6:00,13,24
�n����ʂ�,3_1_2,2022/4/5,7:00,25,44
�n����ʂ�,3_1_2,2022/4/5,8:00,37,60
�n����ʂ�,3_1_2,2022/4/5,9:00,41,48
�n����ʂ�,3_1_2,2022/4/5,10:00,56,61
�n����ʂ�,3_1_2,2022/4/5,11:00,86,107
�n����ʂ�,3_1_2,2022/4/5,12:00,88,134
�n����ʂ�,3_1_2,2022/4/5,13:00,90,107
�n����ʂ�,3_1_2,2022/4/5,14:00,68,116
�n����ʂ�,3_1_2,2022/4/5,15:00,57,112
�n����ʂ�,3_1_2,2022/4/5,16:00,64,101
�n����ʂ�,3_1_2,2022/4/5,17:00,81,98
�n����ʂ�,3_1_2,2022/4/5,18:00,41,48
�n����ʂ�,3_1_2,2022/4/5,19:00,19,11
�n����ʂ�,3_1_2,2022/4/5,20:00,10,3
�n����ʂ�,3_1_2,2022/4/5,21:00,1,5
�n����ʂ�,3_1_2,2022/4/5,22:00,1,0
�n����ʂ�,3_1_2,2022/4/5,23:00,0,0
�n����ʂ�,3_1_2,2022/4/6,0:00,1,0
�n����ʂ�,3_1_2,2022/4/6,1:00,0,0
�n����ʂ�,3_1_2,2022/4/6,2:00,0,0
�n����ʂ�,3_1_2,2022/4/6,3:00,0,1
�n����ʂ�,3_1_2,2022/4/6,4:00,1,0
�n����ʂ�,3_1_2,2022/4/6,5:00,4,5
�n����ʂ�,3_1_2,2022/4/6,6:00,16,9
�n����ʂ�,3_1_2,2022/4/6,7:00,60,47
�n����ʂ�,3_1_2,2022/4/6,8:00,41,73
�n����ʂ�,3_1_2,2022/4/6,9:00,41,63
�n����ʂ�,3_1_2,2022/4/6,10:00,70,68
�n����ʂ�,3_1_2,2022/4/6,11:00,62,85
�n����ʂ�,3_1_2,2022/4/6,12:00,77,103
�n����ʂ�,3_1_2,2022/4/6,13:00,77,121
�n����ʂ�,3_1_2,2022/4/6,14:00,82,114
�n����ʂ�,3_1_2,2022/4/6,15:00,51,86
�n����ʂ�,3_1_2,2022/4/6,16:00,63,76
�n����ʂ�,3_1_2,2022/4/6,17:00,104,96
�n����ʂ�,3_1_2,2022/4/6,18:00,66,59
�n����ʂ�,3_1_2,2022/4/6,19:00,16,27
�n����ʂ�,3_1_2,2022/4/6,20:00,29,7
�n����ʂ�,3_1_2,2022/4/6,21:00,6,2
�n����ʂ�,3_1_2,2022/4/6,22:00,1,3
�n����ʂ�,3_1_2,2022/4/6,23:00,0,0
�n����ʂ�,3_1_2,2022/4/7,0:00,0,1
�n����ʂ�,3_1_2,2022/4/7,1:00,0,0
�n����ʂ�,3_1_2,2022/4/7,2:00,0,0
�n����ʂ�,3_1_2,2022/4/7,3:00,1,0
�n����ʂ�,3_1_2,2022/4/7,4:00,0,2
�n����ʂ�,3_1_2,2022/4/7,5:00,3,3
�n����ʂ�,3_1_2,2022/4/7,6:00,10,19
�n����ʂ�,3_1_2,2022/4/7,7:00,24,37
�n����ʂ�,3_1_2,2022/4/7,8:00,28,68
�n����ʂ�,3_1_2,2022/4/7,9:00,31,51
�n����ʂ�,3_1_2,2022/4/7,10:00,36,49
�n����ʂ�,3_1_2,2022/4/7,11:00,53,91
�n����ʂ�,3_1_2,2022/4/7,12:00,73,104
�n����ʂ�,3_1_2,2022/4/7,13:00,80,69
�n����ʂ�,3_1_2,2022/4/7,14:00,48,91
�n����ʂ�,3_1_2,2022/4/7,15:00,48,55
�n����ʂ�,3_1_2,2022/4/7,16:00,56,72
�n����ʂ�,3_1_2,2022/4/7,17:00,77,81
�n����ʂ�,3_1_2,2022/4/7,18:00,52,58
�n����ʂ�,3_1_2,2022/4/7,19:00,13,14
�n����ʂ�,3_1_2,2022/4/7,20:00,7,8
�n����ʂ�,3_1_2,2022/4/7,21:00,3,4
�n����ʂ�,3_1_2,2022/4/7,22:00,2,0
�n����ʂ�,3_1_2,2022/4/7,23:00,1,0
�n����ʂ�,3_1_2,2022/4/8,0:00,0,1
�n����ʂ�,3_1_2,2022/4/8,1:00,0,0
�n����ʂ�,3_1_2,2022/4/8,2:00,1,0
�n����ʂ�,3_1_2,2022/4/8,3:00,0,0
�n����ʂ�,3_1_2,2022/4/8,4:00,0,2
�n����ʂ�,3_1_2,2022/4/8,5:00,8,2
�n����ʂ�,3_1_2,2022/4/8,6:00,15,15
�n����ʂ�,3_1_2,2022/4/8,7:00,64,48
�n����ʂ�,3_1_2,2022/4/8,8:00,77,73
�n����ʂ�,3_1_2,2022/4/8,9:00,37,55
�n����ʂ�,3_1_2,2022/4/8,10:00,62,47
�n����ʂ�,3_1_2,2022/4/8,11:00,68,79
�n����ʂ�,3_1_2,2022/4/8,12:00,77,96
�n����ʂ�,3_1_2,2022/4/8,13:00,56,76
�n����ʂ�,3_1_2,2022/4/8,14:00,45,70
�n����ʂ�,3_1_2,2022/4/8,15:00,61,78
�n����ʂ�,3_1_2,2022/4/8,16:00,63,79
�n����ʂ�,3_1_2,2022/4/8,17:00,87,82
�n����ʂ�,3_1_2,2022/4/8,18:00,60,86
�n����ʂ�,3_1_2,2022/4/8,19:00,29,20
�n����ʂ�,3_1_2,2022/4/8,20:00,16,8
�n����ʂ�,3_1_2,2022/4/8,21:00,10,3
�n����ʂ�,3_1_2,2022/4/8,22:00,5,2
�n����ʂ�,3_1_2,2022/4/8,23:00,0,1
�n����ʂ�,3_1_2,2022/4/9,0:00,0,3
�n����ʂ�,3_1_2,2022/4/9,1:00,0,0
�n����ʂ�,3_1_2,2022/4/9,2:00,0,0
�n����ʂ�,3_1_2,2022/4/9,3:00,0,1
�n����ʂ�,3_1_2,2022/4/9,4:00,2,4
�n����ʂ�,3_1_2,2022/4/9,5:00,5,6
�n����ʂ�,3_1_2,2022/4/9,6:00,5,14
�n����ʂ�,3_1_2,2022/4/9,7:00,16,32
�n����ʂ�,3_1_2,2022/4/9,8:00,23,35
�n����ʂ�,3_1_2,2022/4/9,9:00,39,43
�n����ʂ�,3_1_2,2022/4/9,10:00,63,66
�n����ʂ�,3_1_2,2022/4/9,11:00,85,118
�n����ʂ�,3_1_2,2022/4/9,12:00,115,146
�n����ʂ�,3_1_2,2022/4/9,13:00,109,140
�n����ʂ�,3_1_2,2022/4/9,14:00,104,110
�n����ʂ�,3_1_2,2022/4/9,15:00,76,90
�n����ʂ�,3_1_2,2022/4/9,16:00,58,87
�n����ʂ�,3_1_2,2022/4/9,17:00,53,81
�n����ʂ�,3_1_2,2022/4/9,18:00,60,63
�n����ʂ�,3_1_2,2022/4/9,19:00,14,16
�n����ʂ�,3_1_2,2022/4/9,20:00,5,15
�n����ʂ�,3_1_2,2022/4/9,21:00,4,3
�n����ʂ�,3_1_2,2022/4/9,22:00,1,1
�n����ʂ�,3_1_2,2022/4/9,23:00,1,1
�n����ʂ�,3_1_2,2022/4/10,0:00,3,1
�n����ʂ�,3_1_2,2022/4/10,1:00,0,0
�n����ʂ�,3_1_2,2022/4/10,2:00,0,1
�n����ʂ�,3_1_2,2022/4/10,3:00,1,0
�n����ʂ�,3_1_2,2022/4/10,4:00,0,0
�n����ʂ�,3_1_2,2022/4/10,5:00,7,4
�n����ʂ�,3_1_2,2022/4/10,6:00,3,9
�n����ʂ�,3_1_2,2022/4/10,7:00,10,21
�n����ʂ�,3_1_2,2022/4/10,8:00,29,35
�n����ʂ�,3_1_2,2022/4/10,9:00,35,38
�n����ʂ�,3_1_2,2022/4/10,10:00,60,79
�n����ʂ�,3_1_2,2022/4/10,11:00,91,113
�n����ʂ�,3_1_2,2022/4/10,12:00,93,157
�n����ʂ�,3_1_2,2022/4/10,13:00,93,134
�n����ʂ�,3_1_2,2022/4/10,14:00,111,153
�n����ʂ�,3_1_2,2022/4/10,15:00,85,131
�n����ʂ�,3_1_2,2022/4/10,16:00,79,97
�n����ʂ�,3_1_2,2022/4/10,17:00,51,77
�n����ʂ�,3_1_2,2022/4/10,18:00,45,34
�n����ʂ�,3_1_2,2022/4/10,19:00,15,13
�n����ʂ�,3_1_2,2022/4/10,20:00,11,15
�n����ʂ�,3_1_2,2022/4/10,21:00,1,1
�n����ʂ�,3_1_2,2022/4/10,22:00,2,3
�n����ʂ�,3_1_2,2022/4/10,23:00,2,0
�n����ʂ�,3_1_2,2022/4/11,0:00,0,0
�n����ʂ�,3_1_2,2022/4/11,1:00,0,0
�n����ʂ�,3_1_2,2022/4/11,2:00,1,0
�n����ʂ�,3_1_2,2022/4/11,3:00,0,0
�n����ʂ�,3_1_2,2022/4/11,4:00,0,2
�n����ʂ�,3_1_2,2022/4/11,5:00,4,4
�n����ʂ�,3_1_2,2022/4/11,6:00,12,18
�n����ʂ�,3_1_2,2022/4/11,7:00,92,40
�n����ʂ�,3_1_2,2022/4/11,8:00,67,72
�n����ʂ�,3_1_2,2022/4/11,9:00,31,50
�n����ʂ�,3_1_2,2022/4/11,10:00,39,46
�n����ʂ�,3_1_2,2022/4/11,11:00,59,78
�n����ʂ�,3_1_2,2022/4/11,12:00,76,97
�n����ʂ�,3_1_2,2022/4/11,13:00,55,87
�n����ʂ�,3_1_2,2022/4/11,14:00,56,82
�n����ʂ�,3_1_2,2022/4/11,15:00,64,68
�n����ʂ�,3_1_2,2022/4/11,16:00,52,67
�n����ʂ�,3_1_2,2022/4/11,17:00,72,67
�n����ʂ�,3_1_2,2022/4/11,18:00,46,61
�n����ʂ�,3_1_2,2022/4/11,19:00,17,17
�n����ʂ�,3_1_2,2022/4/11,20:00,13,5
�n����ʂ�,3_1_2,2022/4/11,21:00,4,2
�n����ʂ�,3_1_2,2022/4/11,22:00,0,3
�n����ʂ�,3_1_2,2022/4/11,23:00,1,1
�n����ʂ�,3_1_2,2022/4/12,0:00,0,0
�n����ʂ�,3_1_2,2022/4/12,1:00,0,0
�n����ʂ�,3_1_2,2022/4/12,2:00,0,0
�n����ʂ�,3_1_2,2022/4/12,3:00,1,1
�n����ʂ�,3_1_2,2022/4/12,4:00,1,0
�n����ʂ�,3_1_2,2022/4/12,5:00,6,3
�n����ʂ�,3_1_2,2022/4/12,6:00,14,16
�n����ʂ�,3_1_2,2022/4/12,7:00,90,61
�n����ʂ�,3_1_2,2022/4/12,8:00,44,65
�n����ʂ�,3_1_2,2022/4/12,9:00,33,68
�n����ʂ�,3_1_2,2022/4/12,10:00,31,48
�n����ʂ�,3_1_2,2022/4/12,11:00,44,68
�n����ʂ�,3_1_2,2022/4/12,12:00,58,70
�n����ʂ�,3_1_2,2022/4/12,13:00,46,82
�n����ʂ�,3_1_2,2022/4/12,14:00,50,82
�n����ʂ�,3_1_2,2022/4/12,15:00,32,67
�n����ʂ�,3_1_2,2022/4/12,16:00,33,62
�n����ʂ�,3_1_2,2022/4/12,17:00,57,62
�n����ʂ�,3_1_2,2022/4/12,18:00,55,84
�n����ʂ�,3_1_2,2022/4/12,19:00,27,21
�n����ʂ�,3_1_2,2022/4/12,20:00,8,4
�n����ʂ�,3_1_2,2022/4/12,21:00,2,1
�n����ʂ�,3_1_2,2022/4/12,22:00,3,1
�n����ʂ�,3_1_2,2022/4/12,23:00,0,0
�n����ʂ�,3_1_2,2022/4/13,0:00,0,0
�n����ʂ�,3_1_2,2022/4/13,1:00,0,0
�n����ʂ�,3_1_2,2022/4/13,2:00,0,0
�n����ʂ�,3_1_2,2022/4/13,3:00,0,0
�n����ʂ�,3_1_2,2022/4/13,4:00,0,1
�n����ʂ�,3_1_2,2022/4/13,5:00,4,5
�n����ʂ�,3_1_2,2022/4/13,6:00,11,9
�n����ʂ�,3_1_2,2022/4/13,7:00,76,45
�n����ʂ�,3_1_2,2022/4/13,8:00,41,62
�n����ʂ�,3_1_2,2022/4/13,9:00,31,53
�n����ʂ�,3_1_2,2022/4/13,10:00,35,55
�n����ʂ�,3_1_2,2022/4/13,11:00,53,62
�n����ʂ�,3_1_2,2022/4/13,12:00,85,85
�n����ʂ�,3_1_2,2022/4/13,13:00,35,63
�n����ʂ�,3_1_2,2022/4/13,14:00,44,78
�n����ʂ�,3_1_2,2022/4/13,15:00,38,44
�n����ʂ�,3_1_2,2022/4/13,16:00,39,87
�n����ʂ�,3_1_2,2022/4/13,17:00,84,80
�n����ʂ�,3_1_2,2022/4/13,18:00,41,39
�n����ʂ�,3_1_2,2022/4/13,19:00,19,13
�n����ʂ�,3_1_2,2022/4/13,20:00,12,1
�n����ʂ�,3_1_2,2022/4/13,21:00,1,1
�n����ʂ�,3_1_2,2022/4/13,22:00,2,2
�n����ʂ�,3_1_2,2022/4/13,23:00,6,0
�n����ʂ�,3_1_2,2022/4/14,0:00,1,0
�n����ʂ�,3_1_2,2022/4/14,1:00,0,0
�n����ʂ�,3_1_2,2022/4/14,2:00,0,0
�n����ʂ�,3_1_2,2022/4/14,3:00,1,0
�n����ʂ�,3_1_2,2022/4/14,4:00,0,0
�n����ʂ�,3_1_2,2022/4/14,5:00,4,4
�n����ʂ�,3_1_2,2022/4/14,6:00,10,12
�n����ʂ�,3_1_2,2022/4/14,7:00,48,34
�n����ʂ�,3_1_2,2022/4/14,8:00,29,45
�n����ʂ�,3_1_2,2022/4/14,9:00,26,46
�n����ʂ�,3_1_2,2022/4/14,10:00,21,30
�n����ʂ�,3_1_2,2022/4/14,11:00,30,31
�n����ʂ�,3_1_2,2022/4/14,12:00,44,52
�n����ʂ�,3_1_2,2022/4/14,13:00,22,36
�n����ʂ�,3_1_2,2022/4/14,14:00,29,53
�n����ʂ�,3_1_2,2022/4/14,15:00,35,43
�n����ʂ�,3_1_2,2022/4/14,16:00,26,44
�n����ʂ�,3_1_2,2022/4/14,17:00,46,29
�n����ʂ�,3_1_2,2022/4/14,18:00,48,35
�n����ʂ�,3_1_2,2022/4/14,19:00,15,5
�n����ʂ�,3_1_2,2022/4/14,20:00,5,3
�n����ʂ�,3_1_2,2022/4/14,21:00,2,4
�n����ʂ�,3_1_2,2022/4/14,22:00,1,0
�n����ʂ�,3_1_2,2022/4/14,23:00,1,0
�n����ʂ�,3_1_2,2022/4/15,0:00,0,0
�n����ʂ�,3_1_2,2022/4/15,1:00,0,0
�n����ʂ�,3_1_2,2022/4/15,2:00,0,0
�n����ʂ�,3_1_2,2022/4/15,3:00,1,0
�n����ʂ�,3_1_2,2022/4/15,4:00,0,1
�n����ʂ�,3_1_2,2022/4/15,5:00,9,7
�n����ʂ�,3_1_2,2022/4/15,6:00,12,6
�n����ʂ�,3_1_2,2022/4/15,7:00,66,36
�n����ʂ�,3_1_2,2022/4/15,8:00,59,71
�n����ʂ�,3_1_2,2022/4/15,9:00,42,65
�n����ʂ�,3_1_2,2022/4/15,10:00,71,86
�n����ʂ�,3_1_2,2022/4/15,11:00,79,105
�n����ʂ�,3_1_2,2022/4/15,12:00,87,121
�n����ʂ�,3_1_2,2022/4/15,13:00,79,106
�n����ʂ�,3_1_2,2022/4/15,14:00,44,76
�n����ʂ�,3_1_2,2022/4/15,15:00,42,81
�n����ʂ�,3_1_2,2022/4/15,16:00,46,59
�n����ʂ�,3_1_2,2022/4/15,17:00,64,62
�n����ʂ�,3_1_2,2022/4/15,18:00,69,65
�n����ʂ�,3_1_2,2022/4/15,19:00,11,10
�n����ʂ�,3_1_2,2022/4/15,20:00,6,3
�n����ʂ�,3_1_2,2022/4/15,21:00,7,3
�n����ʂ�,3_1_2,2022/4/15,22:00,3,0
�n����ʂ�,3_1_2,2022/4/15,23:00,1,0
�n����ʂ�,3_1_2,2022/4/16,0:00,4,1
�n����ʂ�,3_1_2,2022/4/16,1:00,2,0
�n����ʂ�,3_1_2,2022/4/16,2:00,1,1
�n����ʂ�,3_1_2,2022/4/16,3:00,0,0
�n����ʂ�,3_1_2,2022/4/16,4:00,0,1
�n����ʂ�,3_1_2,2022/4/16,5:00,5,4
�n����ʂ�,3_1_2,2022/4/16,6:00,9,13
�n����ʂ�,3_1_2,2022/4/16,7:00,28,35
�n����ʂ�,3_1_2,2022/4/16,8:00,18,47
�n����ʂ�,3_1_2,2022/4/16,9:00,33,38
�n����ʂ�,3_1_2,2022/4/16,10:00,56,68
�n����ʂ�,3_1_2,2022/4/16,11:00,58,72
�n����ʂ�,3_1_2,2022/4/16,12:00,79,97
�n����ʂ�,3_1_2,2022/4/16,13:00,88,115
�n����ʂ�,3_1_2,2022/4/16,14:00,91,95
�n����ʂ�,3_1_2,2022/4/16,15:00,63,70
�n����ʂ�,3_1_2,2022/4/16,16:00,52,100
�n����ʂ�,3_1_2,2022/4/16,17:00,66,85
�n����ʂ�,3_1_2,2022/4/16,18:00,52,61
�n����ʂ�,3_1_2,2022/4/16,19:00,29,17
�n����ʂ�,3_1_2,2022/4/16,20:00,4,3
�n����ʂ�,3_1_2,2022/4/16,21:00,5,6
�n����ʂ�,3_1_2,2022/4/16,22:00,2,2
�n����ʂ�,3_1_2,2022/4/16,23:00,3,0
�n����ʂ�,3_1_2,2022/4/17,0:00,2,2
�n����ʂ�,3_1_2,2022/4/17,1:00,0,1
�n����ʂ�,3_1_2,2022/4/17,2:00,0,0
�n����ʂ�,3_1_2,2022/4/17,3:00,0,1
�n����ʂ�,3_1_2,2022/4/17,4:00,0,1
�n����ʂ�,3_1_2,2022/4/17,5:00,4,5
�n����ʂ�,3_1_2,2022/4/17,6:00,3,14
�n����ʂ�,3_1_2,2022/4/17,7:00,21,21
�n����ʂ�,3_1_2,2022/4/17,8:00,16,33
�n����ʂ�,3_1_2,2022/4/17,9:00,36,30
�n����ʂ�,3_1_2,2022/4/17,10:00,53,75
�n����ʂ�,3_1_2,2022/4/17,11:00,78,93
�n����ʂ�,3_1_2,2022/4/17,12:00,96,122
�n����ʂ�,3_1_2,2022/4/17,13:00,101,108
�n����ʂ�,3_1_2,2022/4/17,14:00,88,118
�n����ʂ�,3_1_2,2022/4/17,15:00,81,94
�n����ʂ�,3_1_2,2022/4/17,16:00,64,73
�n����ʂ�,3_1_2,2022/4/17,17:00,43,65
�n����ʂ�,3_1_2,2022/4/17,18:00,35,66
�n����ʂ�,3_1_2,2022/4/17,19:00,10,15
�n����ʂ�,3_1_2,2022/4/17,20:00,4,6
�n����ʂ�,3_1_2,2022/4/17,21:00,3,1
�n����ʂ�,3_1_2,2022/4/17,22:00,0,0
�n����ʂ�,3_1_2,2022/4/17,23:00,0,2
�n����ʂ�,3_1_2,2022/4/18,0:00,0,1
�n����ʂ�,3_1_2,2022/4/18,1:00,0,0
�n����ʂ�,3_1_2,2022/4/18,2:00,0,1
�n����ʂ�,3_1_2,2022/4/18,3:00,1,0
�n����ʂ�,3_1_2,2022/4/18,4:00,0,0
�n����ʂ�,3_1_2,2022/4/18,5:00,8,6
�n����ʂ�,3_1_2,2022/4/18,6:00,14,14
�n����ʂ�,3_1_2,2022/4/18,7:00,71,46
�n����ʂ�,3_1_2,2022/4/18,8:00,65,68
�n����ʂ�,3_1_2,2022/4/18,9:00,33,78
�n����ʂ�,3_1_2,2022/4/18,10:00,39,68
�n����ʂ�,3_1_2,2022/4/18,11:00,55,82
�n����ʂ�,3_1_2,2022/4/18,12:00,86,101
�n����ʂ�,3_1_2,2022/4/18,13:00,67,76
�n����ʂ�,3_1_2,2022/4/18,14:00,58,75
�n����ʂ�,3_1_2,2022/4/18,15:00,41,84
�n����ʂ�,3_1_2,2022/4/18,16:00,58,80
�n����ʂ�,3_1_2,2022/4/18,17:00,99,77
�n����ʂ�,3_1_2,2022/4/18,18:00,62,74
�n����ʂ�,3_1_2,2022/4/18,19:00,19,11
�n����ʂ�,3_1_2,2022/4/18,20:00,4,0
�n����ʂ�,3_1_2,2022/4/18,21:00,0,2
�n����ʂ�,3_1_2,2022/4/18,22:00,1,3
�n����ʂ�,3_1_2,2022/4/18,23:00,2,2
�n����ʂ�,3_1_2,2022/4/19,0:00,1,1
�n����ʂ�,3_1_2,2022/4/19,1:00,1,0
�n����ʂ�,3_1_2,2022/4/19,2:00,0,1
�n����ʂ�,3_1_2,2022/4/19,3:00,0,0
�n����ʂ�,3_1_2,2022/4/19,4:00,2,1
�n����ʂ�,3_1_2,2022/4/19,5:00,10,9
�n����ʂ�,3_1_2,2022/4/19,6:00,13,16
�n����ʂ�,3_1_2,2022/4/19,7:00,91,56
�n����ʂ�,3_1_2,2022/4/19,8:00,62,73
�n����ʂ�,3_1_2,2022/4/19,9:00,29,62
�n����ʂ�,3_1_2,2022/4/19,10:00,41,64
�n����ʂ�,3_1_2,2022/4/19,11:00,59,71
�n����ʂ�,3_1_2,2022/4/19,12:00,82,88
�n����ʂ�,3_1_2,2022/4/19,13:00,40,77
�n����ʂ�,3_1_2,2022/4/19,14:00,35,80
�n����ʂ�,3_1_2,2022/4/19,15:00,41,50
�n����ʂ�,3_1_2,2022/4/19,16:00,56,55
�n����ʂ�,3_1_2,2022/4/19,17:00,75,86
�n����ʂ�,3_1_2,2022/4/19,18:00,34,84
�n����ʂ�,3_1_2,2022/4/19,19:00,20,12
�n����ʂ�,3_1_2,2022/4/19,20:00,9,0
�n����ʂ�,3_1_2,2022/4/19,21:00,6,1
�n����ʂ�,3_1_2,2022/4/19,22:00,1,1
�n����ʂ�,3_1_2,2022/4/19,23:00,0,1
�n����ʂ�,3_1_2,2022/4/20,0:00,0,0
�n����ʂ�,3_1_2,2022/4/20,1:00,0,0
�n����ʂ�,3_1_2,2022/4/20,2:00,0,0
�n����ʂ�,3_1_2,2022/4/20,3:00,1,1
�n����ʂ�,3_1_2,2022/4/20,4:00,1,2
�n����ʂ�,3_1_2,2022/4/20,5:00,10,10
�n����ʂ�,3_1_2,2022/4/20,6:00,17,15
�n����ʂ�,3_1_2,2022/4/20,7:00,86,55
�n����ʂ�,3_1_2,2022/4/20,8:00,58,81
�n����ʂ�,3_1_2,2022/4/20,9:00,33,43
�n����ʂ�,3_1_2,2022/4/20,10:00,42,76
�n����ʂ�,3_1_2,2022/4/20,11:00,52,71
�n����ʂ�,3_1_2,2022/4/20,12:00,71,90
�n����ʂ�,3_1_2,2022/4/20,13:00,50,72
�n����ʂ�,3_1_2,2022/4/20,14:00,41,69
�n����ʂ�,3_1_2,2022/4/20,15:00,29,56
�n����ʂ�,3_1_2,2022/4/20,16:00,54,99
�n����ʂ�,3_1_2,2022/4/20,17:00,60,71
�n����ʂ�,3_1_2,2022/4/20,18:00,59,69
�n����ʂ�,3_1_2,2022/4/20,19:00,16,9
�n����ʂ�,3_1_2,2022/4/20,20:00,5,6
�n����ʂ�,3_1_2,2022/4/20,21:00,1,0
�n����ʂ�,3_1_2,2022/4/20,22:00,0,1
�n����ʂ�,3_1_2,2022/4/20,23:00,0,0
�n����ʂ�,3_1_2,2022/4/21,0:00,2,0
�n����ʂ�,3_1_2,2022/4/21,1:00,0,0
�n����ʂ�,3_1_2,2022/4/21,2:00,0,0
�n����ʂ�,3_1_2,2022/4/21,3:00,0,0
�n����ʂ�,3_1_2,2022/4/21,4:00,1,1
�n����ʂ�,3_1_2,2022/4/21,5:00,6,6
�n����ʂ�,3_1_2,2022/4/21,6:00,13,11
�n����ʂ�,3_1_2,2022/4/21,7:00,53,33
�n����ʂ�,3_1_2,2022/4/21,8:00,49,75
�n����ʂ�,3_1_2,2022/4/21,9:00,29,60
�n����ʂ�,3_1_2,2022/4/21,10:00,41,67
�n����ʂ�,3_1_2,2022/4/21,11:00,57,53
�n����ʂ�,3_1_2,2022/4/21,12:00,47,63
�n����ʂ�,3_1_2,2022/4/21,13:00,34,47
�n����ʂ�,3_1_2,2022/4/21,14:00,31,52
�n����ʂ�,3_1_2,2022/4/21,15:00,19,34
�n����ʂ�,3_1_2,2022/4/21,16:00,32,40
�n����ʂ�,3_1_2,2022/4/21,17:00,48,44
�n����ʂ�,3_1_2,2022/4/21,18:00,45,50
�n����ʂ�,3_1_2,2022/4/21,19:00,8,7
�n����ʂ�,3_1_2,2022/4/21,20:00,2,6
�n����ʂ�,3_1_2,2022/4/21,21:00,2,3
�n����ʂ�,3_1_2,2022/4/21,22:00,1,0
�n����ʂ�,3_1_2,2022/4/21,23:00,1,1
�n����ʂ�,3_1_2,2022/4/22,0:00,0,0
�n����ʂ�,3_1_2,2022/4/22,1:00,0,0
�n����ʂ�,3_1_2,2022/4/22,2:00,1,0
�n����ʂ�,3_1_2,2022/4/22,3:00,1,2
�n����ʂ�,3_1_2,2022/4/22,4:00,1,0
�n����ʂ�,3_1_2,2022/4/22,5:00,7,8
�n����ʂ�,3_1_2,2022/4/22,6:00,15,13
�n����ʂ�,3_1_2,2022/4/22,7:00,41,41
�n����ʂ�,3_1_2,2022/4/22,8:00,32,54
�n����ʂ�,3_1_2,2022/4/22,9:00,37,66
�n����ʂ�,3_1_2,2022/4/22,10:00,84,103
�n����ʂ�,3_1_2,2022/4/22,11:00,121,138
�n����ʂ�,3_1_2,2022/4/22,12:00,101,155
�n����ʂ�,3_1_2,2022/4/22,13:00,92,116
�n����ʂ�,3_1_2,2022/4/22,14:00,57,69
�n����ʂ�,3_1_2,2022/4/22,15:00,38,71
�n����ʂ�,3_1_2,2022/4/22,16:00,49,76
�n����ʂ�,3_1_2,2022/4/22,17:00,80,95
�n����ʂ�,3_1_2,2022/4/22,18:00,63,77
�n����ʂ�,3_1_2,2022/4/22,19:00,14,13
�n����ʂ�,3_1_2,2022/4/22,20:00,9,2
�n����ʂ�,3_1_2,2022/4/22,21:00,2,4
�n����ʂ�,3_1_2,2022/4/22,22:00,0,3
�n����ʂ�,3_1_2,2022/4/22,23:00,0,1
�n����ʂ�,3_1_2,2022/4/23,0:00,0,0
�n����ʂ�,3_1_2,2022/4/23,1:00,0,0
�n����ʂ�,3_1_2,2022/4/23,2:00,1,0
�n����ʂ�,3_1_2,2022/4/23,3:00,1,0
�n����ʂ�,3_1_2,2022/4/23,4:00,0,0
�n����ʂ�,3_1_2,2022/4/23,5:00,3,5
�n����ʂ�,3_1_2,2022/4/23,6:00,13,12
�n����ʂ�,3_1_2,2022/4/23,7:00,25,41
�n����ʂ�,3_1_2,2022/4/23,8:00,20,37
�n����ʂ�,3_1_2,2022/4/23,9:00,36,40
�n����ʂ�,3_1_2,2022/4/23,10:00,61,76
�n����ʂ�,3_1_2,2022/4/23,11:00,76,122
�n����ʂ�,3_1_2,2022/4/23,12:00,92,108
�n����ʂ�,3_1_2,2022/4/23,13:00,71,118
�n����ʂ�,3_1_2,2022/4/23,14:00,133,165
�n����ʂ�,3_1_2,2022/4/23,15:00,130,152
�n����ʂ�,3_1_2,2022/4/23,16:00,107,98
�n����ʂ�,3_1_2,2022/4/23,17:00,63,82
�n����ʂ�,3_1_2,2022/4/23,18:00,37,67
�n����ʂ�,3_1_2,2022/4/23,19:00,20,16
�n����ʂ�,3_1_2,2022/4/23,20:00,3,2
�n����ʂ�,3_1_2,2022/4/23,21:00,5,4
�n����ʂ�,3_1_2,2022/4/23,22:00,2,5
�n����ʂ�,3_1_2,2022/4/23,23:00,2,0
�n����ʂ�,3_1_2,2022/4/24,0:00,0,0
�n����ʂ�,3_1_2,2022/4/24,1:00,1,0
�n����ʂ�,3_1_2,2022/4/24,2:00,2,0
�n����ʂ�,3_1_2,2022/4/24,3:00,1,1
�n����ʂ�,3_1_2,2022/4/24,4:00,2,1
�n����ʂ�,3_1_2,2022/4/24,5:00,3,2
�n����ʂ�,3_1_2,2022/4/24,6:00,1,3
�n����ʂ�,3_1_2,2022/4/24,7:00,1,8
�n����ʂ�,3_1_2,2022/4/24,8:00,15,18
�n����ʂ�,3_1_2,2022/4/24,9:00,15,29
�n����ʂ�,3_1_2,2022/4/24,10:00,36,48
�n����ʂ�,3_1_2,2022/4/24,11:00,59,74
�n����ʂ�,3_1_2,2022/4/24,12:00,74,94
�n����ʂ�,3_1_2,2022/4/24,13:00,73,94
�n����ʂ�,3_1_2,2022/4/24,14:00,69,99
�n����ʂ�,3_1_2,2022/4/24,15:00,48,109
�n����ʂ�,3_1_2,2022/4/24,16:00,56,62
�n����ʂ�,3_1_2,2022/4/24,17:00,44,59
�n����ʂ�,3_1_2,2022/4/24,18:00,19,39
�n����ʂ�,3_1_2,2022/4/24,19:00,10,10
�n����ʂ�,3_1_2,2022/4/24,20:00,1,5
�n����ʂ�,3_1_2,2022/4/24,21:00,1,2
�n����ʂ�,3_1_2,2022/4/24,22:00,1,0
�n����ʂ�,3_1_2,2022/4/24,23:00,0,0
�n����ʂ�,3_1_2,2022/4/25,0:00,0,0
�n����ʂ�,3_1_2,2022/4/25,1:00,1,0
�n����ʂ�,3_1_2,2022/4/25,2:00,0,1
�n����ʂ�,3_1_2,2022/4/25,3:00,0,0
�n����ʂ�,3_1_2,2022/4/25,4:00,0,1
�n����ʂ�,3_1_2,2022/4/25,5:00,8,6
�n����ʂ�,3_1_2,2022/4/25,6:00,10,8
�n����ʂ�,3_1_2,2022/4/25,7:00,66,42
�n����ʂ�,3_1_2,2022/4/25,8:00,51,73
�n����ʂ�,3_1_2,2022/4/25,9:00,35,81
�n����ʂ�,3_1_2,2022/4/25,10:00,49,54
�n����ʂ�,3_1_2,2022/4/25,11:00,63,77
�n����ʂ�,3_1_2,2022/4/25,12:00,84,91
�n����ʂ�,3_1_2,2022/4/25,13:00,55,99
�n����ʂ�,3_1_2,2022/4/25,14:00,61,57
�n����ʂ�,3_1_2,2022/4/25,15:00,46,67
�n����ʂ�,3_1_2,2022/4/25,16:00,51,94
�n����ʂ�,3_1_2,2022/4/25,17:00,87,85
�n����ʂ�,3_1_2,2022/4/25,18:00,50,71
�n����ʂ�,3_1_2,2022/4/25,19:00,28,17
�n����ʂ�,3_1_2,2022/4/25,20:00,3,5
�n����ʂ�,3_1_2,2022/4/25,21:00,4,3
�n����ʂ�,3_1_2,2022/4/25,22:00,1,2
�n����ʂ�,3_1_2,2022/4/25,23:00,0,0
�n����ʂ�,3_1_2,2022/4/26,0:00,0,0
�n����ʂ�,3_1_2,2022/4/26,1:00,3,0
�n����ʂ�,3_1_2,2022/4/26,2:00,0,1
�n����ʂ�,3_1_2,2022/4/26,3:00,0,0
�n����ʂ�,3_1_2,2022/4/26,4:00,1,2
�n����ʂ�,3_1_2,2022/4/26,5:00,7,11
�n����ʂ�,3_1_2,2022/4/26,6:00,19,14
�n����ʂ�,3_1_2,2022/4/26,7:00,40,40
�n����ʂ�,3_1_2,2022/4/26,8:00,47,50
�n����ʂ�,3_1_2,2022/4/26,9:00,27,55
�n����ʂ�,3_1_2,2022/4/26,10:00,24,38
�n����ʂ�,3_1_2,2022/4/26,11:00,45,60
�n����ʂ�,3_1_2,2022/4/26,12:00,51,81
�n����ʂ�,3_1_2,2022/4/26,13:00,32,47
�n����ʂ�,3_1_2,2022/4/26,14:00,29,48
�n����ʂ�,3_1_2,2022/4/26,15:00,33,37
�n����ʂ�,3_1_2,2022/4/26,16:00,43,45
�n����ʂ�,3_1_2,2022/4/26,17:00,39,58
�n����ʂ�,3_1_2,2022/4/26,18:00,54,37
�n����ʂ�,3_1_2,2022/4/26,19:00,27,10
�n����ʂ�,3_1_2,2022/4/26,20:00,1,0
�n����ʂ�,3_1_2,2022/4/26,21:00,4,5
�n����ʂ�,3_1_2,2022/4/26,22:00,2,0
�n����ʂ�,3_1_2,2022/4/26,23:00,0,0
�n����ʂ�,3_1_2,2022/4/27,0:00,0,0
�n����ʂ�,3_1_2,2022/4/27,1:00,2,0
�n����ʂ�,3_1_2,2022/4/27,2:00,0,0
�n����ʂ�,3_1_2,2022/4/27,3:00,0,0
�n����ʂ�,3_1_2,2022/4/27,4:00,0,1
�n����ʂ�,3_1_2,2022/4/27,5:00,5,9
�n����ʂ�,3_1_2,2022/4/27,6:00,14,7
�n����ʂ�,3_1_2,2022/4/27,7:00,68,23
�n����ʂ�,3_1_2,2022/4/27,8:00,52,59
�n����ʂ�,3_1_2,2022/4/27,9:00,35,76
�n����ʂ�,3_1_2,2022/4/27,10:00,41,77
�n����ʂ�,3_1_2,2022/4/27,11:00,70,119
�n����ʂ�,3_1_2,2022/4/27,12:00,121,113
�n����ʂ�,3_1_2,2022/4/27,13:00,77,102
�n����ʂ�,3_1_2,2022/4/27,14:00,44,76
�n����ʂ�,3_1_2,2022/4/27,15:00,53,73
�n����ʂ�,3_1_2,2022/4/27,16:00,48,107
�n����ʂ�,3_1_2,2022/4/27,17:00,86,99
�n����ʂ�,3_1_2,2022/4/27,18:00,61,60
�n����ʂ�,3_1_2,2022/4/27,19:00,25,15
�n����ʂ�,3_1_2,2022/4/27,20:00,7,1
�n����ʂ�,3_1_2,2022/4/27,21:00,3,3
�n����ʂ�,3_1_2,2022/4/27,22:00,1,1
�n����ʂ�,3_1_2,2022/4/27,23:00,2,0
�n����ʂ�,3_1_2,2022/4/28,0:00,0,0
�n����ʂ�,3_1_2,2022/4/28,1:00,0,0
�n����ʂ�,3_1_2,2022/4/28,2:00,1,1
�n����ʂ�,3_1_2,2022/4/28,3:00,0,1
�n����ʂ�,3_1_2,2022/4/28,4:00,0,0
�n����ʂ�,3_1_2,2022/4/28,5:00,5,7
�n����ʂ�,3_1_2,2022/4/28,6:00,12,13